DW9615 Home Hill AU current weather conditions

sailwx.info

Wind from 044 at 0 knots gusting 6

Air temperature 24.4° C
Dewpoint 19.7° C

Last reported at 2017-Nov-18 09:06 UTC.
Time now 2017-Nov-18 10:07 UTC

Location: S 19°40' E 147°25'.
View on Google Maps.

See reports from other nearby stations

  
Tides and Currents Weather Stations Pressure Air Temp Water Temp Dewpoint Dewpoint Depression Visibility Wind Speed Wind Dir Waves Ship Positions
date/time (UTC)wind fromknots sea level pressurealtimeterstation pressurevisibilityair tempwater tempwave heightnotes
2017-Nov-18 09:06 044 0 gusting 6 24.4
2017-Nov-18 08:52 056 0 gusting 5 24.4
2017-Nov-18 08:36 065 2 gusting 5 25.0
2017-Nov-18 08:21 044 1 gusting 6 25.0
2017-Nov-18 08:06 050 2 gusting 12 25.6
2017-Nov-18 07:51 042 3 gusting 11 25.6
2017-Nov-18 07:36 077 4 gusting 10 26.1
2017-Nov-18 07:21 079 1 gusting 9 26.7
2017-Nov-18 07:06 037 5 gusting 11 26.7
2017-Nov-18 06:51 009 3 gusting 9 26.7
2017-Nov-18 06:36 052 4 gusting 9 27.2
2017-Nov-18 06:21 047 5 gusting 13 27.2
2017-Nov-18 06:06 055 5 gusting 13 27.8
2017-Nov-18 05:51 058 3 gusting 11 27.2
2017-Nov-18 05:36 082 6 gusting 12 27.8
2017-Nov-18 05:21 044 4 gusting 13 27.8
2017-Nov-18 05:06 034 4 gusting 13 27.8
2017-Nov-18 04:51 062 7 gusting 13 27.8
2017-Nov-18 04:36 033 5 gusting 13 27.8
2017-Nov-18 04:21 040 6 gusting 14 28.3
2017-Nov-18 04:06 035 6 gusting 13 27.8
2017-Nov-18 03:51 051 7 gusting 13 27.8
2017-Nov-18 03:40 019 4 gusting 12 27.8
2017-Nov-18 03:28 042 6 gusting 14 27.8
2017-Nov-18 03:06 039 3 gusting 12 28.3
2017-Nov-18 02:51 059 4 gusting 15 28.3
2017-Nov-18 02:36 082 6 gusting 13 28.3
2017-Nov-18 02:21 060 6 gusting 13 27.8
2017-Nov-18 02:06 036 6 gusting 14 28.3
2017-Nov-18 01:51 037 6 gusting 13 28.3
2017-Nov-18 01:36 058 6 gusting 13 27.8
2017-Nov-18 01:21 050 7 gusting 13 27.8
2017-Nov-18 01:06 158 6 gusting 16 27.8
2017-Nov-18 00:51 100 5 gusting 12 27.8
2017-Nov-18 00:36 042 4 gusting 11 27.8
2017-Nov-18 00:21 071 5 gusting 13 27.8
2017-Nov-18 00:06 097 3 gusting 13 27.8
2017-Nov-17 23:51 069 5 gusting 13 27.2
2017-Nov-17 23:36 084 6 gusting 11 27.8
2017-Nov-17 23:21 050 6 gusting 10 27.2
2017-Nov-17 23:06 078 3 gusting 9 27.2
2017-Nov-17 22:51 129 2 gusting 9 27.2
2017-Nov-17 22:36 090 3 gusting 10 26.7
2017-Nov-17 22:21 075 2 gusting 8 26.7
2017-Nov-17 22:06 130 1 gusting 6 26.7
2017-Nov-17 21:51 091 0 gusting 4 26.1
2017-Nov-17 21:36 124 0 gusting 4 26.1
2017-Nov-17 21:20 074 25.0
2017-Nov-17 21:06 133 1 gusting 4 24.4
2017-Nov-17 20:50 139 0 gusting 4 23.3
2017-Nov-17 20:35 141 0 gusting 3 22.8
2017-Nov-17 20:20 135 21.7
2017-Nov-17 20:05 135 20.6
2017-Nov-17 19:50 141 20.0
2017-Nov-17 19:36 143 20.0
2017-Nov-17 19:20 141 20.0
2017-Nov-17 19:05 141 20.0
2017-Nov-17 18:50 141 20.6
2017-Nov-17 18:35 141 20.6
2017-Nov-17 18:20 141 20.6
2017-Nov-17 18:05 141 20.6
2017-Nov-17 17:50 141 20.0
2017-Nov-17 17:35 141 20.6
2017-Nov-17 17:20 141 20.6
2017-Nov-17 17:05 141 20.6
2017-Nov-17 16:50 080 21.1
2017-Nov-17 16:35 080 21.1
2017-Nov-17 16:20 075 21.1
2017-Nov-17 16:05 071 21.1
2017-Nov-17 15:50 067 21.7
2017-Nov-17 15:35 067 21.7
2017-Nov-17 15:20 066 21.7
2017-Nov-17 15:05 066 22.2
2017-Nov-17 14:50 066 22.2
2017-Nov-17 14:35 066 22.2
2017-Nov-17 14:20 066 22.8
2017-Nov-17 14:05 067 22.8
2017-Nov-17 13:50 071 22.8
2017-Nov-17 13:35 070 22.8
2017-Nov-17 13:20 071 22.8
2017-Nov-17 13:05 071 22.8
2017-Nov-17 12:50 069 22.8
2017-Nov-17 12:35 063 23.3
2017-Nov-17 12:20 073 0 gusting 5 23.3
2017-Nov-17 12:05 079 0 gusting 2 23.3
2017-Nov-17 11:50 083 0 gusting 5 23.3
2017-Nov-17 11:34 079 0 gusting 6 23.3
2017-Nov-17 11:20 083 23.3
2017-Nov-17 11:04 052 0 gusting 4 23.3
2017-Nov-17 10:49 082 0 gusting 3 23.3
2017-Nov-17 10:34 070 1 gusting 8 23.9
2017-Nov-17 10:19 079 1 gusting 9 23.9
2017-Nov-17 10:04 069 23.9
2017-Nov-17 09:49 043 0 gusting 6 24.4
2017-Nov-17 09:35 102 2 gusting 8 24.4
2017-Nov-17 09:20 067 1 gusting 8 24.4
2017-Nov-17 09:04 066 0 gusting 6 24.4
2017-Nov-17 08:49 049 2 gusting 6 24.4
2017-Nov-17 08:34 083 2 gusting 9 25.0
2017-Nov-17 08:19 060 6 gusting 15 25.0
2017-Nov-17 08:04 048 2 gusting 9 25.0
2017-Nov-17 07:49 042 2 gusting 14 25.6
2017-Nov-17 07:35 051 3 gusting 10 25.6
2017-Nov-17 07:19 048 6 gusting 11 25.6
2017-Nov-17 07:05 050 6 gusting 12 25.6
2017-Nov-17 06:49 060 6 gusting 13 26.1
2017-Nov-17 06:34 060 5 gusting 13 26.7
2017-Nov-17 06:19 052 6 gusting 13 26.7
2017-Nov-17 06:04 081 7 gusting 15 27.2
2017-Nov-17 05:49 085 5 gusting 11 26.7
2017-Nov-17 05:34 058 6 gusting 11 27.2
2017-Nov-17 05:20 072 4 gusting 11 26.7
2017-Nov-17 05:04 056 4 gusting 10 27.2
2017-Nov-17 04:49 084 6 gusting 10 27.2
2017-Nov-17 04:34 044 6 gusting 12 27.2
2017-Nov-17 04:19 032 5 gusting 12 26.7
2017-Nov-17 04:04 095 3 gusting 11 26.7
2017-Nov-17 03:49 069 6 gusting 10 27.2
2017-Nov-17 03:38 047 6 gusting 14 27.2
2017-Nov-17 03:28 049 6 gusting 13 27.2
2017-Nov-17 03:04 074 6 gusting 12 27.8
2017-Nov-17 02:49 050 5 gusting 12 27.8
2017-Nov-17 02:34 052 6 gusting 13 28.3
2017-Nov-17 02:19 044 6 gusting 13 28.3
2017-Nov-17 02:04 031 4 gusting 13 27.8
2017-Nov-17 01:49 094 4 gusting 12 28.3
2017-Nov-17 01:34 087 3 gusting 14 28.3
2017-Nov-17 01:19 081 3 gusting 11 27.8
2017-Nov-17 01:04 042 5 gusting 10 28.3
2017-Nov-17 00:49 045 5 gusting 13 27.8
2017-Nov-17 00:34 074 4 gusting 12 27.8
2017-Nov-17 00:19 075 5 gusting 11 27.8
2017-Nov-17 00:04 075 5 gusting 11 27.2
2017-Nov-16 23:49 073 4 gusting 13 27.2
2017-Nov-16 23:34 056 5 gusting 11 26.7
2017-Nov-16 23:19 049 4 gusting 11 26.7
2017-Nov-16 23:04 077 5 gusting 12 27.2
2017-Nov-16 22:49 083 3 gusting 13 27.2
2017-Nov-16 22:34 143 4 gusting 14 26.7
2017-Nov-16 22:19 091 5 gusting 12 26.1
2017-Nov-16 22:03 134 6 gusting 13 25.6
2017-Nov-16 21:48 111 1 gusting 6 26.1
2017-Nov-16 21:34 141 1 gusting 7 25.6
2017-Nov-16 21:18 133 2 gusting 5 25.6
2017-Nov-16 21:03 141 1 gusting 4 24.4
2017-Nov-16 20:48 146 0 gusting 5 23.9
2017-Nov-16 20:34 146 0 gusting 4 22.8
2017-Nov-16 20:18 129 0 gusting 2 21.7
2017-Nov-16 20:03 152 20.6
2017-Nov-16 19:48 156 19.4
2017-Nov-16 19:33 156 19.4
2017-Nov-16 19:18 156 19.4
2017-Nov-16 19:03 156 19.4
2017-Nov-16 18:48 156 19.4
2017-Nov-16 18:33 155 19.4
2017-Nov-16 18:18 155 19.4
2017-Nov-16 18:03 155 19.4
2017-Nov-16 17:48 155 19.4
2017-Nov-16 17:33 154 19.4
2017-Nov-16 17:18 154 20.0
2017-Nov-16 17:03 154 20.0
2017-Nov-16 16:48 150 20.0
2017-Nov-16 16:33 148 20.0
2017-Nov-16 16:18 148 20.6
2017-Nov-16 16:03 148 20.6
2017-Nov-16 15:48 148 21.1
2017-Nov-16 15:33 148 21.1
2017-Nov-16 15:18 148 21.1
2017-Nov-16 15:03 148 21.7
2017-Nov-16 14:48 140 22.8
2017-Nov-16 14:32 062 2 gusting 9 23.3
2017-Nov-16 14:18 089 0 gusting 6 23.3
2017-Nov-16 14:02 073 0 gusting 5 23.3
2017-Nov-16 13:47 083 2 gusting 7 23.3
2017-Nov-16 13:33 071 1 gusting 7 23.3
2017-Nov-16 13:17 073 0 gusting 7 23.3
2017-Nov-16 13:02 109 23.3
2017-Nov-16 12:47 130 1 gusting 9 23.3
2017-Nov-16 12:33 079 1 gusting 5 23.9
2017-Nov-16 12:17 096 0 gusting 7 23.9
2017-Nov-16 12:02 106 0 gusting 8 23.9
2017-Nov-16 11:47 058 1 gusting 9 23.9
2017-Nov-16 11:32 069 2 gusting 12 23.9
2017-Nov-16 11:17 067 0 gusting 9 23.9
2017-Nov-16 11:02 077 2 gusting 12 23.9
2017-Nov-16 10:47 085 1 gusting 7 23.9
2017-Nov-16 10:32 079 0 gusting 6 23.9
2017-Nov-16 10:17 066 1 gusting 6 23.9
2017-Nov-16 10:02 041 0 gusting 6 23.9